Location: Aranbee
(34.0885°N, 118.2342°W)
Time: 08:54:08
(UTC+00:00)

Courier 1B Rocket - Pass Details

Date: 02 December 2020
Orbit: 920 x 1202 km, 28.2° (Epoch: 27 January)

Event Time Altitude Azimuth Distance (km) Brightness Sun altitude
Rises 17:13:13 0° 270° (W) 4,078 7.9 23.5°
Reaches altitude 10° 17:16:35 10° 258° (WSW) 3,090 7.4 24.0°
Maximum altitude 17:22:44 27° 205° (SSW) 2,048 7.3 24.7°
Drops below altitude 10° 17:28:37 10° 151° (SSE) 2,944 9.4 25.4°
Sets 17:31:45 0° 139° (SE) 3,851 9.4 25.8°
